This demonstration page uses our WeatherBlox Daily Observations layout. Learn more.

Left ArrowRight Arrow

38.80484, -77.04692

Hourly Observations for April 18, 2016

Temp ( °F °C ) Dew Point ( °F °C ) Humidity (%) Winds ( mph kmh ) Pressure ( in mb ) Visibility ( mi km ) Precip ( " mm )
12:52 am 00:52 Mostly Clear 57 13.9 47 8.3 69 69 S 6 9 30.29 1026 10 16 0.00 0.00
1:52 am 01:52 Partly Cloudy 57 13.9 44 6.7 62 62 SSW 5 7 30.28 1025 10 16 0.00 0.00
2:52 am 02:52 Mostly Clear 55 12.8 44 6.7 67 67 SSW 3 6 30.26 1025 10 16 0.00 0.00
3:52 am 03:52 Mostly Clear 54 12.2 44 6.7 69 69 SW 5 7 30.25 1025 10 16 0.00 0.00
4:52 am 04:52 Clear 53 11.7 42 5.6 66 66 W 3 6 30.25 1025 10 16 0.00 0.00
5:52 am 05:52 Clear 53 11.7 42 5.6 66 66 SW 3 6 30.26 1025 10 16 0.00 0.00
6:52 am 06:52 Mostly Sunny 53 11.7 44 6.7 72 72 Calm 30.27 1025 10 16 0.00 0.00
7:52 am 07:52 Mostly Sunny 57 13.9 50 10 78 78 Calm 30.28 1025 10 16 0.00 0.00
8:52 am 08:52 Mostly Sunny 60 15.6 47 8.3 62 62 Calm 30.27 1025 10 16 0.00 0.00
9:52 am 09:52 Mostly Sunny 67 19.4 46 7.8 47 47 Calm 30.27 1025 10 16 0.00 0.00
10:52 am 10:52 Partly Cloudy 72 22.2 44 6.7 37 37 ESE 3 6 30.25 1024 10 16 0.00 0.00
11:52 am 11:52 Partly Cloudy 76 24.4 41 5 29 29 ESE 3 6 30.23 1024 10 16 0.00 0.00
12:52 pm 12:52 Mostly Cloudy 81 27.2 43 6.1 26 26 N 5 7 30.21 1023 10 16 0.00 0.00
1:52 pm 13:52 Mostly Cloudy 83 28.3 42 5.6 24 24 NNW 13 20 30.20 1023 10 16 0.00 0.00
2:52 pm 14:52 Mostly Cloudy 83 28.3 39 3.9 21 21 NNW 14 22 30.18 1022 10 16 0.00 0.00
3:52 pm 15:52 Partly Cloudy 83 28.3 40 4.4 22 22 WNW 9 15 30.16 1021 10 16 0.00 0.00
4:52 pm 16:52 Partly Cloudy 84 28.9 39 3.9 20 20 N 9 15 30.14 1021 10 16 0.00 0.00
5:52 pm 17:52 Mostly Cloudy 84 28.9 38 3.3 19 19 NNW 7 11 30.12 1020 10 16 0.00 0.00
6:52 pm 18:52 Mostly Cloudy 80 26.7 42 5.6 26 26 NE 3 6 30.11 1020 10 16 0.00 0.00
7:52 pm 19:52 Mostly Cloudy 74 23.3 46 7.8 37 37 E 7 11 30.11 1020 10 16 0.00 0.00
8:52 pm 20:52 Mostly Cloudy 71 21.7 44 6.7 38 38 S 6 9 30.11 1020 10 16 0.00 0.00
9:52 pm 21:52 Mostly Cloudy 71 21.7 41 5 34 34 S 3 6 30.13 1020 10 16 0.00 0.00
10:52 pm 22:52 Mostly Cloudy 68 20 48 8.9 49 49 Calm 30.12 1020 10 16 0.00 0.00
11:52 pm 23:52 Mostly Cloudy 64 17.8 52 11.1 65 65 S 3 6 30.11 1020 10 16 0.00 0.00

Powered by AerisWeather